Mount Ida, AR

5:17 AM CDT on April 30, 2017 (GMT -0500)
Mount Ida

Weather History for KMWT - June, 2014

Change the Weather History Date:

Thursday, June 26, 2014

  Actual Average (KHOT) Record (KHOT)
Temperature  
Mean Temperature 76 °F -  
Max Temperature 84 °F 91 °F 101 °F (1954)
Min Temperature 68 °F 68 °F 53 °F (1958)
Cooling Degree Days 11    
Growing Degree Days 26 (Base 50)    
Moisture  
Dew Point 69 °F    
Average Humidity 89    
Maximum Humidity 100    
Minimum Humidity 61    
Precipitation  
Precipitation 0.00 in - - ()
Sea Level Pressure  
Sea Level Pressure 29.99 in    
Wind  
Wind Speed 1 mph (SE)    
Max Wind Speed 8 mph    
Max Gust Speed -    
Visibility 5 miles    
Events Fog    
Averages and records for this station are not official NWS values.
T = Trace of Precipitation, MM = Missing Value Source: NWS Daily Summary

Daily Weather History Graph

Daily Weather History Graph

Search for Another Location

Airport or City:

Trip Planner

Search our weather history database for the weather conditions in past years. The results will help you decide how hot, cold, wet, or windy it might be!

Date:

Astronomy

Jun. 26, 2014 Rise Set
Actual Time 6:03 AM CDT 8:31 PM CDT
Civil Twilight 5:33 AM CDT 9:00 PM CDT
Nautical Twilight 4:57 AM CDT 9:36 PM CDT
Astronomical Twilight 4:17 AM CDT 10:16 PM CDT
Moon 5:39 AM CDT (6/26) 7:56 PM CDT (6/26)
Length of Visible Light 15h 26m
Length of Day
14h 27m
Waning Crescent, 0% of the Moon is Illuminated
Jun 26
Waning Crescent
Jun 27
New
Jul 5
First Quarter
Jul 12
Full
Jul 18
Last Quarter

Hourly Weather History & Observations

Time (CDT) Temp. Heat Index Dew Point Humidity Pressure Visibility Wind Dir Wind Speed Gust Speed Precip Events Conditions
12:50 AM 69.8 °F - 69.8 °F 100% 30.03 in 2.5 mi Calm Calm - N/A   Scattered Clouds
12:53 AM 70.0 °F - 69.1 °F 97% 30.00 in 2.5 mi Calm Calm - N/A   Partly Cloudy
1:00 AM 70.0 °F - 69.1 °F 97% 30.03 in 3.0 mi Calm Calm - N/A   Clear
1:12 AM 70.0 °F - 69.1 °F 97% 30.03 in 1.8 mi Calm Calm - N/A   Clear
1:23 AM 70.0 °F - 69.1 °F 97% 30.02 in 3.0 mi Calm Calm - N/A   Clear
1:34 AM 70.0 °F - 68.0 °F 93% 30.02 in 2.0 mi Calm Calm - N/A   Clear
1:44 AM 70.0 °F - 68.0 °F 93% 30.02 in 5.0 mi Calm Calm - N/A   Clear
1:53 AM 70.0 °F - 69.1 °F 97% 29.99 in 4.0 mi Calm Calm - N/A   Clear
2:08 AM 70.0 °F - 69.1 °F 97% 30.01 in 2.5 mi Calm Calm - N/A   Clear
2:18 AM 70.0 °F - 69.1 °F 97% 30.01 in 4.0 mi Calm Calm - N/A   Clear
2:27 AM 69.1 °F - 68.0 °F 96% 30.01 in 2.0 mi Calm Calm - N/A   Partly Cloudy
2:31 AM 69.1 °F - 68.0 °F 96% 30.01 in 1.0 mi Calm Calm - N/A   Mist
2:35 AM 69.1 °F - 68.0 °F 96% 30.01 in 0.8 mi Calm Calm - N/A   Mist
2:41 AM 69.1 °F - 68.0 °F 96% 30.00 in 1.0 mi Calm Calm - N/A   Mist
2:53 AM 69.1 °F - 68.0 °F 96% 29.97 in 1.0 mi Calm Calm - N/A   Mist
3:09 AM 69.1 °F - 68.0 °F 96% 30.00 in 2.5 mi Calm Calm - N/A   Overcast
3:18 AM 69.1 °F - 68.0 °F 96% 30.00 in 4.0 mi Calm Calm - N/A   Overcast
3:53 AM 69.1 °F - 68.0 °F 96% 29.96 in 2.0 mi Calm Calm - N/A   Mostly Cloudy
4:07 AM 69.1 °F - 68.0 °F 96% 29.99 in 3.0 mi Calm Calm - N/A   Mostly Cloudy
4:20 AM 69.1 °F - 68.0 °F 96% 29.99 in 3.0 mi Calm Calm - N/A   Scattered Clouds
4:32 AM 69.1 °F - 68.0 °F 96% 29.99 in 2.0 mi Calm Calm - N/A   Clear
4:45 AM 69.1 °F - 68.0 °F 96% 29.99 in 1.8 mi Calm Calm - N/A   Clear
4:53 AM 69.1 °F - 68.0 °F 96% 29.96 in 1.5 mi Calm Calm - N/A   Partly Cloudy
5:05 AM 69.1 °F - 66.9 °F 93% 29.99 in 1.0 mi Calm Calm - N/A   Mist
5:21 AM 68.0 °F - 66.9 °F 96% 30.00 in 0.5 mi Calm Calm - N/A Fog Fog
5:53 AM 68.0 °F - 66.9 °F 96% 29.97 in 0.2 mi Calm Calm - N/A Fog Fog
6:25 AM 68.0 °F - 66.9 °F 96% 30.01 in 0.5 mi Calm Calm - N/A Fog Fog
6:40 AM 68.0 °F - 68.0 °F 100% 30.01 in 1.0 mi Calm Calm - N/A   Overcast
6:49 AM 69.8 °F - 68.0 °F 94% 30.01 in 2.0 mi Calm Calm - N/A   Mostly Cloudy
6:53 AM 69.1 °F - 68.0 °F 96% 29.99 in 3.0 mi Calm Calm - N/A   Mostly Cloudy
7:39 AM 70.0 °F - 69.1 °F 97% 30.03 in 5.0 mi Calm Calm - N/A   Scattered Clouds
7:53 AM 70.0 °F - 69.1 °F 97% 30.01 in 7.0 mi Calm Calm - N/A   Partly Cloudy
8:53 AM 72.0 °F - 71.1 °F 97% 30.02 in 8.0 mi Calm Calm - N/A   Overcast
9:53 AM 77.0 °F - 72.0 °F 84% 30.02 in 10.0 mi Calm Calm - N/A   Mostly Cloudy
10:05 AM 77.0 °F - 72.0 °F 84% 30.04 in 10.0 mi ESE 4.6 mph - N/A   Mostly Cloudy
10:38 AM 77.0 °F - 72.0 °F 84% 30.04 in 10.0 mi Variable 3.5 mph - N/A   Mostly Cloudy
10:53 AM 77.0 °F - 72.0 °F 84% 30.01 in 10.0 mi Variable 4.6 mph - N/A   Mostly Cloudy
11:10 AM 77.0 °F - 71.1 °F 82% 30.04 in 8.0 mi Variable 3.5 mph - N/A   Mostly Cloudy
11:24 AM 78.1 °F - 72.0 °F 81% 30.04 in 6.0 mi Calm Calm - N/A   Haze
11:53 AM 79.0 °F - 71.1 °F 77% 30.01 in 10.0 mi South 4.6 mph - N/A   Mostly Cloudy
12:48 PM 80.6 °F 84.6 °F 71.6 °F 74% 30.01 in 10.0 mi Variable 4.6 mph - N/A   Scattered Clouds
12:53 PM 80.1 °F 83.2 °F 70.0 °F 71% 29.98 in 10.0 mi South 8.1 mph - N/A   Scattered Clouds
1:53 PM 84.0 °F 89.0 °F 71.1 °F 65% 29.95 in 10.0 mi Variable 4.6 mph - N/A   Mostly Cloudy
2:53 PM 82.0 °F 85.9 °F 70.0 °F 67% 29.93 in 10.0 mi Variable 3.5 mph - N/A   Mostly Cloudy
3:53 PM 84.0 °F 87.8 °F 69.1 °F 61% 29.91 in 10.0 mi Variable 4.6 mph - N/A   Clear
4:50 PM 80.6 °F 84.6 °F 71.6 °F 74% 29.95 in 10.0 mi East 5.8 mph - N/A   Mostly Cloudy
4:53 PM 79.0 °F - 71.1 °F 77% 29.92 in 10.0 mi ESE 4.6 mph - N/A   Mostly Cloudy
5:53 PM 79.0 °F - 71.1 °F 77% 29.91 in 10.0 mi Variable 6.9 mph - N/A   Clear
6:53 PM 80.1 °F 83.6 °F 71.1 °F 74% 29.89 in 10.0 mi SE 4.6 mph - N/A   Clear
7:53 PM 78.1 °F - 71.1 °F 79% 29.91 in 10.0 mi SE 5.8 mph - N/A   Mostly Cloudy
8:53 PM 73.9 °F - 69.1 °F 85% 29.91 in 10.0 mi SE 8.1 mph - N/A   Clear
9:53 PM 73.0 °F - 68.0 °F 84% 29.93 in 10.0 mi SE 5.8 mph - N/A   Clear
10:53 PM 73.9 °F - 68.0 °F 82% 29.96 in 10.0 mi Variable 4.6 mph - N/A   Mostly Cloudy
11:18 PM 73.9 °F - 68.0 °F 82% 29.98 in 10.0 mi Calm Calm - N/A   Overcast
11:53 PM 73.9 °F - 69.1 °F 85% 29.93 in 10.0 mi Variable 4.6 mph - N/A   Mostly Cloudy